Weather History for KLDM - March, 2013

Change the Weather History Date:

Saturday, March 23, 2013

  Actual Average Record
Temperature  
Mean Temperature 32 °F -  
Max Temperature 35 °F 44 °F 68 °F (1987)
Min Temperature 30 °F 25 °F 8 °F (1960)
Degree Days  
Heating Degree Days 32    
Moisture  
Dew Point 24 °F    
Average Humidity 71    
Maximum Humidity 83    
Minimum Humidity 58    
Precipitation  
Precipitation 0.00 in - - ()
Sea Level Pressure  
Sea Level Pressure 30.09 in    
Wind  
Wind Speed 2 mph (North)    
Max Wind Speed 10 mph    
Max Gust Speed -    
Visibility 10 miles    
Events      
Averages and records for this station are not official NWS values.
T = Trace of Precipitation, MM = Missing Value Source: NWS Daily Summary

Daily Weather History Graph

Daily Weather History Graph

Search for Another Location

Airport or City:

Trip Planner

Search our weather history database for the weather conditions in past years. The results will help you decide how hot, cold, wet, or windy it might be!

Date:

Astronomy

Mar. 23, 2013 Rise Set
Actual Time 7:42 AM EDT 8:02 PM EDT
Civil Twilight 7:14 AM EDT 8:30 PM EDT
Nautical Twilight 6:40 AM EDT 9:04 PM EDT
Astronomical Twilight 6:05 AM EDT 9:39 PM EDT
Moon 4:21 PM EDT (3/23) 5:25 AM EDT (3/23)
Length of Visible Light 13h 16m
Length of Day
12h 19m
Waxing Gibbous, 85% of the Moon is Illuminated
Mar 23
Waxing Gibbous
Mar 27
Full
Apr 3
Last Quarter
Apr 10
New
Apr 18
First Quarter

Hourly Weather History & Observations

Time (EDT) Temp. Windchill Dew Point Humidity Pressure Visibility Wind Dir Wind Speed Gust Speed Precip Events Conditions
12:15 AM 30.2 °F - 21.9 °F 71% 30.05 in 10.0 mi Calm Calm - N/A   Overcast
12:35 AM 30.2 °F - 23.0 °F 75% 30.05 in 10.0 mi Calm Calm - N/A   Overcast
12:55 AM 30.2 °F - 23.2 °F 75% 30.06 in 10.0 mi Calm Calm - N/A   Overcast
1:15 AM 30.2 °F - 23.0 °F 75% 30.06 in 10.0 mi Calm Calm - N/A   Overcast
1:35 AM 30.2 °F - 23.0 °F 75% 30.05 in 10.0 mi Calm Calm - N/A   Overcast
1:54 AM 30.2 °F - 23.9 °F 77% 30.06 in 10.0 mi Calm Calm - N/A   Overcast
2:15 AM 30.2 °F - 23.0 °F 75% 30.06 in 10.0 mi Calm Calm - N/A   Overcast
2:35 AM 30.2 °F 25.4 °F 23.9 °F 77% 30.06 in 10.0 mi NE 4.6 mph - N/A   Overcast
2:54 AM 30.2 °F - 24.4 °F 79% 30.07 in 10.0 mi Calm Calm - N/A   Overcast
3:15 AM 30.2 °F - 24.8 °F 80% 30.06 in 10.0 mi Calm Calm - N/A   Overcast
3:35 AM 30.2 °F - 25.2 °F 82% 30.05 in 10.0 mi Calm Calm - N/A   Overcast
3:54 AM 30.2 °F - 25.3 °F 82% 30.05 in 10.0 mi Calm Calm - N/A   Overcast
4:15 AM 30.2 °F - 25.5 °F 83% - 10.0 mi Calm Calm - N/A   Overcast
4:35 AM 30.2 °F - 25.2 °F 82% - 10.0 mi Calm Calm - N/A   Overcast
4:54 AM 30.2 °F - 24.4 °F 79% 30.05 in 10.0 mi Calm Calm - N/A   Overcast
5:15 AM 30.2 °F - 23.9 °F 77% 30.05 in 10.0 mi Calm Calm - N/A   Overcast
5:35 AM 30.2 °F - 23.0 °F 75% 30.05 in 10.0 mi Calm Calm - N/A   Overcast
5:54 AM 30.2 °F - 23.9 °F 77% 30.06 in 10.0 mi Calm Calm - N/A   Overcast
6:15 AM 30.2 °F 26.7 °F 23.0 °F 75% 30.06 in 10.0 mi NNE 3.5 mph - N/A   Overcast
6:35 AM 30.2 °F - 22.8 °F 74% 30.07 in 10.0 mi Calm Calm - N/A   Overcast
6:54 AM 30.2 °F - 22.6 °F 73% 30.07 in 10.0 mi Calm Calm - N/A   Overcast
7:15 AM 30.2 °F - 22.1 °F 72% 30.07 in 10.0 mi Calm Calm - N/A   Overcast
7:35 AM 30.2 °F 26.7 °F 22.6 °F 73% 30.07 in 10.0 mi East 3.5 mph - N/A   Overcast
7:54 AM 30.2 °F - 23.0 °F 75% 30.08 in 10.0 mi Calm Calm - N/A   Overcast
8:15 AM 30.2 °F - 22.5 °F 73% 30.09 in 10.0 mi Calm Calm - N/A   Overcast
8:35 AM 30.2 °F - 22.6 °F 73% 30.09 in 10.0 mi Calm Calm - N/A   Overcast
8:55 AM 30.2 °F - 22.6 °F 73% 30.10 in 10.0 mi Calm Calm - N/A   Overcast
9:15 AM 30.2 °F - 22.5 °F 73% 30.10 in 10.0 mi Calm Calm - N/A   Overcast
9:35 AM 30.2 °F - 21.9 °F 71% 30.10 in 10.0 mi Calm Calm - N/A   Overcast
9:54 AM 30.2 °F 25.4 °F 21.7 °F 71% 30.10 in 10.0 mi ENE 4.6 mph - N/A   Overcast
10:15 AM 30.2 °F 25.4 °F 21.6 °F 70% 30.10 in 10.0 mi NE 4.6 mph - N/A   Overcast
10:35 AM 31.6 °F 28.3 °F 22.1 °F 68% 30.11 in 10.0 mi NE 3.5 mph - N/A   Overcast
10:55 AM 32.4 °F 26.0 °F 22.5 °F 67% - 10.0 mi North 6.9 mph - N/A   Overcast
11:15 AM 32.5 °F 27.1 °F 21.9 °F 65% 30.12 in 10.0 mi North 5.8 mph - N/A   Overcast
11:34 AM 32.5 °F 24.2 °F 21.9 °F 65% 30.12 in 10.0 mi North 10.4 mph - N/A   Overcast
11:55 AM 32.5 °F 26.2 °F 21.7 °F 64% 30.13 in 10.0 mi North 6.9 mph - N/A   Overcast
12:15 PM 32.5 °F 28.1 °F 21.4 °F 64% 30.14 in 10.0 mi North 4.6 mph - N/A   Overcast
12:35 PM 32.5 °F 26.2 °F 21.6 °F 64% 30.14 in 10.0 mi North 6.9 mph - N/A   Overcast
12:55 PM 32.5 °F 27.1 °F 21.4 °F 64% 30.12 in 10.0 mi NNE 5.8 mph - N/A   Overcast
1:14 PM 33.1 °F 25.5 °F 21.4 °F 62% 30.12 in 10.0 mi North 9.2 mph - N/A   Overcast
1:35 PM 35.1 °F 28.6 °F 23.0 °F 61% 30.12 in 10.0 mi NNW 8.1 mph - N/A   Overcast
1:55 PM 35.1 °F 30.1 °F 21.7 °F 58% 30.12 in 10.0 mi NW 5.8 mph - N/A   Overcast
2:14 PM 35.1 °F 27.9 °F 21.7 °F 58% 30.11 in 10.0 mi NNW 9.2 mph - N/A   Overcast
2:35 PM 35.1 °F 27.9 °F 22.5 °F 60% 30.12 in 10.0 mi NW 9.2 mph - N/A   Overcast
2:55 PM 35.1 °F 32.2 °F 22.3 °F 60% 30.11 in 10.0 mi NNW 3.5 mph - N/A   Overcast
3:14 PM 35.1 °F 28.6 °F 21.9 °F 59% 30.11 in 10.0 mi WNW 8.1 mph - N/A   Overcast
3:35 PM 35.1 °F 27.9 °F 22.5 °F 60% 30.11 in 10.0 mi NNW 9.2 mph - N/A   Overcast
3:55 PM 35.1 °F 28.6 °F 23.5 °F 63% 30.10 in 10.0 mi NNW 8.1 mph - N/A   Overcast
4:14 PM 35.1 °F 29.3 °F 23.7 °F 63% 30.10 in 10.0 mi NNW 6.9 mph - N/A   Overcast
4:35 PM 35.1 °F 27.4 °F 23.9 °F 64% 30.09 in 10.0 mi NNW 10.4 mph - N/A   Overcast
4:55 PM 35.1 °F 30.1 °F 24.4 °F 65% 30.10 in 10.0 mi North 5.8 mph - N/A   Overcast
5:15 PM 35.1 °F 29.3 °F 24.6 °F 66% 30.11 in 10.0 mi North 6.9 mph - N/A   Overcast
5:35 PM 35.1 °F 27.9 °F 25.3 °F 68% 30.10 in 10.0 mi NNW 9.2 mph - N/A   Overcast
5:55 PM 34.9 °F 27.7 °F 26.2 °F 71% 30.10 in 10.0 mi North 9.2 mph - N/A   Overcast
6:15 PM 32.5 °F 25.5 °F 24.6 °F 73% 30.10 in 10.0 mi North 8.1 mph - N/A   Overcast
6:35 PM 32.5 °F 25.5 °F 24.8 °F 73% 30.10 in 10.0 mi North 8.1 mph - N/A   Overcast
6:55 PM 32.5 °F 26.2 °F 24.6 °F 73% 30.10 in 10.0 mi North 6.9 mph - N/A   Overcast
7:15 PM 32.5 °F 29.3 °F 24.3 °F 72% 30.10 in 10.0 mi NNE 3.5 mph - N/A   Overcast
7:35 PM 32.5 °F 27.1 °F 23.7 °F 70% 30.10 in 10.0 mi North 5.8 mph - N/A   Overcast
7:55 PM 32.5 °F 28.1 °F 23.7 °F 70% 30.09 in 10.0 mi NNE 4.6 mph - N/A   Overcast
8:15 PM 32.5 °F 29.3 °F 24.1 °F 71% 30.09 in 10.0 mi NE 3.5 mph - N/A   Overcast
8:34 PM 32.5 °F 29.3 °F 24.6 °F 73% 30.08 in 10.0 mi NNE 3.5 mph - N/A   Overcast
8:55 PM 32.5 °F - 24.8 °F 73% 30.08 in 10.0 mi Calm Calm - N/A   Overcast
9:15 PM 32.5 °F - 25.0 °F 74% 30.09 in 10.0 mi Calm Calm - N/A   Overcast
9:35 PM 32.5 °F - 25.3 °F 75% 30.09 in 10.0 mi Calm Calm - N/A   Overcast
9:55 PM 32.5 °F - 25.7 °F 76% 30.09 in 10.0 mi Calm Calm - N/A   Overcast
10:14 PM 32.5 °F 29.3 °F 25.5 °F 75% 30.09 in 10.0 mi NE 3.5 mph - N/A   Overcast
10:35 PM 32.5 °F - 25.7 °F 76% 30.08 in 10.0 mi Calm Calm - N/A   Overcast
10:55 PM 32.4 °F - 25.7 °F 76% 30.09 in 10.0 mi Calm Calm - N/A   Overcast
11:14 PM 32.0 °F - 25.3 °F 76% 30.09 in 10.0 mi Calm Calm - N/A   Overcast
11:35 PM 32.5 °F - 25.5 °F 75% 30.10 in 10.0 mi Calm Calm - N/A   Overcast
11:55 PM 32.2 °F - 25.3 °F 76% 30.08 in 10.0 mi Calm Calm - N/A   Overcast